Printer-friendly version

IAU Minor Planet Center

Minor Planet Center

MPEC 2007-J24 : 2007 JD

The following Minor Planet Electronic Circular may be linked-to from your own Web pages, but must not otherwise be redistributed electronically.


Read MPEC 2007-J23 Read MPEC 2007-J25


M.P.E.C. 2007-J24                                Issued 2007 May 8, 04:36 UT

     The Minor Planet Electronic Circulars contain information on unusual
         minor planets and routine data on comets.  They are published
   on behalf of Commission 20 of the International Astronomical Union by the
          Minor Planet Center, Smithsonian Astrophysical Observatory,
                          Cambridge, MA 02138, U.S.A.

             Prepared using the Tamkin Foundation Computer Network

                              MPC@CFA.HARVARD.EDU
          URL http://www.cfa.harvard.edu/iau/mpc.html  ISSN 1523-6714

                                    2007 JD

Observations:
     K07J00D* C2007 05 07.59442 12 59 02.18 -21 08 57.0          17.5 V EJ024E12
     K07J00D  C2007 05 07.60529 12 58 45.87 -21 06 56.5          16.9 V EJ024E12
     K07J00D  C2007 05 07.61617 12 58 29.42 -21 04 55.4          17.2 V EJ024E12
     K07J00D  C2007 05 07.66417 12 57 16.86 -20 55 55.2          18.3 V EJ024E12
     K07J00D  C2007 05 07.66478 12 57 16.03 -20 55 47.9                 EJ024E12
     K07J00D  C2007 05 07.66508 12 57 15.51 -20 55 44.7          17.8 V EJ024E12
     K07J00D  C2007 05 07.67210 12 57 04.73 -20 54 24.1          18.7 V EJ024E12
     K07J00D  C2007 05 07.67926 12 56 53.88 -20 53 01.2          17.9 V EJ024E12
     K07J00D  C2007 05 07.89436 12 51 27.32 -20 13 39.4                 EJ024J95
     K07J00D  C2007 05 07.89628 12 51 24.15 -20 13 16.0                 EJ024J95
     K07J00D  C2007 05 07.89820 12 51 20.97 -20 12 51.7                 EJ024J95
     K07J00D  C2007 05 07.90037 12 51 17.38 -20 12 24.4                 EJ024J95
     K07J00D  C2007 05 07.90327 12 51 12.54 -20 11 48.5          18.1 R EJ024J95
     K07J00D  C2007 05 08.14528 12 44 21.00 -19 17 46.5          17.7 R EJ024H36
     K07J00D  C2007 05 08.14690 12 44 18.05 -19 17 23.0          18.2 R EJ024H36
     K07J00D  C2007 05 08.14851 12 44 15.09 -19 17 00.3          17.9 R EJ024H36
     K07J00D  C2007 05 08.15009 12 44 12.20 -19 16 37.9          18.1 R EJ024H36
     K07J00D  C2007 05 08.15168 12 44 09.25 -19 16 15.3          18.0 R EJ024H36
     K07J00D 5C2007 05 08.16777 12 43 42.92 -19 12 15.8          18.2 R EJ024673
     K07J00D 5C2007 05 08.17299 12 43 33.43 -19 11 02.7                 EJ024673
     K07J00D 5C2007 05 08.17750 12 43 25.03 -19 09 59.1                 EJ024673
     K07J00D 5C2007 05 08.18259 12 43 15.51 -19 08 45.4                 EJ024673

Observer details:
673 Table Mountain Observatory, Wrightwood.  Observer J. Young.  0.61-m f/16
    Cassegrain + CCD.
E12 Siding Spring Survey.  Observer G. J. Garradd.  Measurers E. C. Beshore,
    E. J. Christensen, G. J. Garradd, A. R. Gibbs, A. D. Grauer, R. E. Hill,
    R. A. Kowalski, S. M. Larson, R. H. McNaught.  0.5-m Uppsala Schmidt + CCD.
H36 Sandlot Observatory, Scranton.  Observer G. Hug.  0.30-m
    Schmidt-Cassegrain + CCD.
J95 Great Shefford.  Observer P. Birtwhistle.  0.40-m f/6.0 Schmidt-Cassegrain
    + CCD.

Orbital elements:
2007 JD                                                  Earth MOID = 0.0010 AU
Epoch 2007 Apr. 10.0 TT = JDT 2454200.5                 MPC
M 344.31551              (2000.0)            P               Q
n   0.20643852     Peri.   93.17650     +0.77104771     +0.61629493
a   2.8353644      Node   228.84691     -0.63526436     +0.72714010
e   0.8131972      Incl.   12.28474     -0.04387055     +0.30240343
P   4.77           H   22.8           G   0.15           U   8
Residuals in seconds of arc
070507 E12  0.1+  0.7-    070507 J95  0.5-  0.3+    070508 H36  0.5-  0.7+
070507 E12  0.2+  0.1+    070507 J95  0.2-  0.2-    070508 H36  0.7-  0.7+
070507 E12  1.0-  0.7+    070507 J95  0.1+  0.1+    070508 673  1.1-  0.6+
070507 E12  0.1-  0.3-    070507 J95  0.5+  0.3+    070508 673  1.7+  0.7-
070507 E12  1.3+  0.0     070507 J95  0.5+  0.1-    070508 673  1.5+  1.6-
070507 E12  0.4+  0.2-    070508 H36  1.2-  0.2+    070508 673  1.0+  0.9-
070507 E12  1.1-  0.1-    070508 H36  0.8-  0.8+
070507 E12  0.4-  0.5+    070508 H36  0.7-  0.7+

Ephemeris:
2007 JD                  a,e,i = 2.84, 0.81, 12                  q = 0.5297
Date    TT    R. A. (2000) Decl.     Delta      r     Elong.  Phase     V
2007 04 30    14 13.97   -28 37.4    0.169    1.172   165.6    12.3    20.0
2007 05 01    14 09.75   -28 19.0    0.154    1.158   165.7    12.4    19.8
2007 05 02    14 04.71   -27 55.6    0.140    1.144   165.5    12.8    19.6
2007 05 03    13 58.58   -27 25.3    0.126    1.130   164.9    13.5    19.3
2007 05 04    13 51.00   -26 45.3    0.111    1.116   163.8    14.6    19.1
2007 05 05    13 41.41   -25 51.2    0.0974   1.101   162.0    16.5    18.8
2007 05 06    13 28.92   -24 35.1    0.0837   1.087   159.3    19.1    18.6
2007 05 07    13 12.11   -22 43.1    0.0704   1.073   155.3    23.2    18.3
2007 05 08    12 48.55   -19 48.9    0.0576   1.059   149.2    29.2    18.0
2007 05 09    12 14.11   -15 00.2    0.0459   1.045   139.7    38.6    17.7
2007 05 10    11 22.21   -06 43.7    0.0363   1.031   124.5    53.8    17.6
2007 05 11    10 06.22   +06 18.4    0.0307   1.016   101.4    76.9    18.0
2007 05 12    08 32.31   +20 29.4    0.0314   1.002    74.5   103.8    19.1
2007 05 13    07 06.19   +29 18.9    0.0381   0.988    53.0   125.2    20.9
2007 05 14    06 04.11   +32 59.7    0.0482   0.974    39.1   139.1    22.9
2007 05 15    05 22.88   +34 16.3    0.0602   0.959    30.4   147.8    24.6

Timothy B. Spahr             (C) Copyright 2007 MPC           M.P.E.C. 2007-J24

Read MPEC 2007-J23 Read MPEC 2007-J25


Our Web policy. Index to the CBAT/MPC/ICQ pages.


Valid HTML 4.01!